Beaufort, NC

9:08 AM EDT on September 21, 2017 (GMT -0400)
Smith

Weather History for KMRH - August, 2012

Change the Weather History Date:

Monday, August 6, 2012

  Actual Average Record
Temperature  
Mean Temperature 83 °F -  
Max Temperature 88 °F 87 °F 95 °F (1969)
Min Temperature 78 °F 71 °F 61 °F (1948)
Cooling Degree Days 18    
Growing Degree Days 33 (Base 50)    
Moisture  
Dew Point 75 °F    
Average Humidity 76    
Maximum Humidity 87    
Minimum Humidity 65    
Precipitation  
Precipitation 0.09 in - - ()
Sea Level Pressure  
Sea Level Pressure 30.11 in    
Wind  
Wind Speed 11 mph (SW)    
Max Wind Speed 15 mph    
Max Gust Speed -    
Visibility 10 miles    
Events Rain    
Averages and records for this station are not official NWS values.
T = Trace of Precipitation, MM = Missing Value Source: NWS Daily Summary

Daily Weather History Graph

Daily Weather History Graph

Search for Another Location

Airport or City:

Trip Planner

Search our weather history database for the weather conditions in past years. The results will help you decide how hot, cold, wet, or windy it might be!

Date:

Astronomy

Aug. 06, 2012 Rise Set
Actual Time 6:20 AM EDT 8:03 PM EDT
Civil Twilight 5:53 AM EDT 8:30 PM EDT
Nautical Twilight 5:20 AM EDT 9:03 PM EDT
Astronomical Twilight 4:45 AM EDT 9:38 PM EDT
Moon 10:27 PM EDT (8/6) 10:52 AM EDT (8/6)
Length of Visible Light 14h 37m
Length of Day
13h 43m
Waning Gibbous, 78% of the Moon is Illuminated
Aug 6
Waning Gibbous
Aug 9
Last Quarter
Aug 17
New
Aug 24
First Quarter
Aug 31
Full

Hourly Weather History & Observations

Time (EDT) Temp. Heat Index Dew Point Humidity Pressure Visibility Wind Dir Wind Speed Gust Speed Precip Events Conditions
12:56 AM 82.0 °F 88.6 °F 75.0 °F 79% 30.15 in 10.0 mi South 9.2 mph - N/A   Scattered Clouds
2:56 AM 82.0 °F 88.6 °F 75.0 °F 79% 30.14 in 10.0 mi SSW 9.2 mph - N/A   Scattered Clouds
3:12 AM 82.4 °F 89.5 °F 75.2 °F 79% 30.13 in 10.0 mi SW 12.7 mph - N/A   Mostly Cloudy
3:24 AM 82.4 °F 89.5 °F 75.2 °F 79% 30.14 in 10.0 mi SW 11.5 mph - N/A   Scattered Clouds
3:56 AM 82.0 °F 88.6 °F 75.0 °F 79% 30.14 in 10.0 mi SW 12.7 mph - N/A   Scattered Clouds
4:56 AM 82.0 °F 87.9 °F 73.9 °F 76% 30.13 in 10.0 mi SSW 11.5 mph - N/A   Partly Cloudy
5:56 AM 82.0 °F 88.6 °F 75.0 °F 79% 30.14 in 10.0 mi SW 10.4 mph - N/A   Partly Cloudy
7:56 AM 84.0 °F 92.6 °F 75.9 °F 76% 30.15 in 10.0 mi SW 10.4 mph - N/A   Scattered Clouds
9:56 AM 78.1 °F - 73.9 °F 87% 30.16 in 1.5 mi West 9.2 mph - 0.09 in Rain Heavy Rain
10:11 AM 78.8 °F - 73.4 °F 83% 30.15 in 10.0 mi West 3.5 mph - 0.00 in Rain Light Rain
10:56 AM 84.9 °F 93.3 °F 75.0 °F 72% 30.15 in 10.0 mi WSW 8.1 mph - 0.00 in   Partly Cloudy
11:56 AM 86.0 °F 96.0 °F 75.9 °F 72% 30.14 in 10.0 mi WSW 9.2 mph - N/A   Clear
12:56 PM 88.0 °F 97.5 °F 75.0 °F 65% 30.13 in 10.0 mi SW 11.5 mph - N/A   Clear
1:56 PM 87.1 °F 97.3 °F 75.9 °F 69% 30.12 in 10.0 mi SW 13.8 mph - N/A   Partly Cloudy
2:56 PM 88.0 °F 98.5 °F 75.9 °F 67% 30.09 in 10.0 mi SSW 15.0 mph - N/A   Clear
3:56 PM 88.0 °F 101.3 °F 78.1 °F 72% 30.06 in 10.0 mi SSW 10.4 mph - N/A   Scattered Clouds
4:56 PM 86.0 °F 96.0 °F 75.9 °F 72% 30.05 in 10.0 mi SSW 12.7 mph - N/A   Partly Cloudy
5:56 PM 86.0 °F 96.0 °F 75.9 °F 72% 30.06 in 10.0 mi SSW 13.8 mph - N/A   Partly Cloudy
6:56 PM 84.9 °F 94.1 °F 75.9 °F 74% 30.06 in 10.0 mi SSW 12.7 mph - N/A   Clear
7:56 PM 82.9 °F 90.2 °F 75.0 °F 77% 30.05 in 10.0 mi SW 13.8 mph - N/A   Clear
8:56 PM 82.9 °F 90.8 °F 75.9 °F 79% 30.06 in 10.0 mi SSW 10.4 mph - N/A   Partly Cloudy
10:56 PM 82.9 °F 90.2 °F 75.0 °F 77% 30.09 in 10.0 mi SSW 9.2 mph - N/A   Scattered Clouds
11:56 PM 82.9 °F 90.8 °F 75.9 °F 79% 30.07 in 10.0 mi SSW 10.4 mph - N/A   Scattered Clouds